This demonstration page uses our WeatherBlox Daily Observations layout. Learn more.

Left ArrowRight Arrow

53.62937, 11.41316

Hourly Observations for October 29, 2015

Temp ( °F °C ) Dew Point ( °F °C ) Humidity (%) Winds ( mph kmh ) Pressure ( in mb ) Visibility ( mi km ) Precip ( " mm )
7:50 am 07:50 Mostly Sunny 37 3 36 2 93 93 ENE 7 11 30.00 1016 4 6 N/A
8:20 am 08:20 Mostly Sunny 39 4 37 3 93 93 ENE 3 6 30.00 1016 4 6 N/A
8:50 am 08:50 Mostly Sunny 39 4 37 3 93 93 E 3 6 30.03 1017 4 7 N/A
9:20 am 09:20 Mostly Sunny 41 5 37 3 87 87 E 2 4 30.03 1017 5 8 N/A
9:50 am 09:50 Mostly Sunny 43 6 39 4 87 87 VRB 2 4 30.03 1017 6 9 N/A
10:20 am 10:20 Mostly Sunny 45 7 39 4 81 81 VRB 2 4 30.03 1017 7 11 N/A
10:50 am 10:50 Mostly Sunny 46 8 41 5 82 82 NE 3 6 30.03 1017 7 11 N/A
11:20 am 11:20 Mostly Sunny 48 9 41 5 76 76 E 3 6 30.06 1018 6 9 N/A
11:50 am 11:50 Mostly Sunny 50 10 43 6 76 76 E 5 7 30.06 1018 7 11 N/A
12:20 pm 12:20 Mostly Sunny 52 11 43 6 72 72 E 3 6 30.06 1018 7 11 N/A
12:50 pm 12:50 Mostly Sunny 52 11 45 7 77 77 VRB 2 4 30.06 1018 6 9 N/A
1:20 pm 13:20 Mostly Sunny 52 11 43 6 72 72 VRB 2 4 30.06 1018 6 9 N/A
1:50 pm 13:50 Mostly Sunny 54 12 43 6 67 67 VRB 2 4 30.06 1018 6 9 N/A
2:20 pm 14:20 Mostly Sunny 54 12 45 7 72 72 VRB 1 2 30.06 1018 7 11 N/A
2:50 pm 14:50 Mostly Sunny 54 12 45 7 72 72 WSW 3 6 30.09 1019 6 9 N/A
3:20 pm 15:20 Mostly Sunny 54 12 46 8 77 77 W 3 6 30.09 1019 6 9 N/A
3:50 pm 15:50 Mostly Sunny 52 11 46 8 82 82 SW 3 6 30.09 1019 5 8 N/A
4:20 pm 16:20 Mostly Sunny 52 11 46 8 82 82 VRB 1 2 30.09 1019 5 8 N/A
4:50 pm 16:50 Mostly Clear 46 8 45 7 93 93 S 1 2 30.12 1020 4 6 N/A
5:20 pm 17:20 Mostly Clear with Fog 45 7 43 6 93 93 VRB 2 4 30.12 1020 4 6 N/A
5:50 pm 17:50 Mostly Clear with Fog 43 6 41 5 93 93 S 1 2 30.15 1021 4 6 N/A

Powered by AerisWeather